Regional Weather Roundup
Issued by NWS

Home | Current Version | Previous Version | Graphics & Text | Print | Product List | Glossary On
Versions: 1 2 3 4 5 6 7 8 9 10 11 12 13 14 15 16 17 18 19 20 21 22 23 24 25 26 27 28 29 30 31 32 33 34 35 36 37 38 39 40 41 42 43 44 45 46 47 48 49 50
000
ASUS45 KBOI 200410
RWRID
WEATHER ROUNDUP FOR IDAHO
NATIONAL WEATHER SERVICE BOISE ID
1000 PM MDT FRI SEP 19 2014

NOTE: "FAIR" INDICATES FEW OR NO CLOUDS BELOW 12000 FEET
WITH NO SIGNIFICANT WEATHER AND/OR OBSTRUCTIONS TO VISIBILITY

IDZ012-014-200500-
SOUTHWEST IDAHO


CITY           SKY/WX    TMP DP  RH WIND       PRES   REMARKS
BOISE          CLEAR     69  45  41 CALM      30.03R
CALDWELL       CLEAR     66  45  45 W6        30.03S
MOUNTAIN HOME  CLEAR     65  44  47 W7        30.04R
$$

IDZ016-017-200500-
SOUTHCENTRAL IDAHO


CITY           SKY/WX    TMP DP  RH WIND       PRES   REMARKS
BURLEY         CLEAR     57  46  66 SW7       30.09R
JEROME         CLEAR     63  45  51 S7        30.09R
TWIN FALLS     CLEAR     65  43  44 SW10      30.10R
$$

IDZ019>023-200500-
SOUTHEAST IDAHO


CITY           SKY/WX    TMP DP  RH WIND       PRES   REMARKS
IDAHO FALLS    CLEAR     65  43  44 S8        30.12R
POCATELLO      CLEAR     62  45  53 S8        30.12R
REXBURG        CLEAR     64  41  42 S10       30.12R
$$

IDZ006-010-011-018-031-032-200500-
CENTRAL IDAHO MOUNTAINS


CITY           SKY/WX    TMP DP  RH WIND       PRES   REMARKS
MCCALL         PTCLDY    63  43  48 N7        30.14R
HAILEY         CLEAR     64  43  45 CALM      30.14R
STANLEY          N/A     50  36  58 S5        30.22R
SALMON         PTCLDY    64  43  45 W3        30.09R
CHALLIS        PTCLDY    66  39  37 N8        30.12R
$$

IDZ002-004-006-007-026-200500-
NORTHERN IDAHO


CITY           SKY/WX    TMP DP  RH WIND       PRES   REMARKS
LEWISTON       CLEAR     69  46  43 SE6       30.04R
LOWELL           N/A     60  52  74 N5        30.08R
COEUR D`ALENE  PTCLDY    64  46  52 SE8       30.06S
MULLAN PASS    MOCLDY    49  42  77 VRB7      30.22R
$$


USA.gov is the U.S. government's official web portal to all federal, state and local government web resources and services.